Location: Grange Verzio
(44.5000°N, 6.9833°E)
Time: 18:11:03
(UTC+00:00)

Cosmos 468 Rocket - Pass Details

Date: 01 February 2023
Orbit: 744 x 778 km, 74.0° (Epoch: 29 March)

Event Time Altitude Azimuth Distance (km) Brightness Sun altitude
Rises 17:37:15 0° 345° (NNW) 3,223 7.3 -10.4°
Reaches altitude 10° 17:39:49 10° 354° (N) 2,288 6.4 -10.8°
Maximum altitude 17:44:36 36° 61° (ENE) 1,171 4.5 -11.7°
Drops below altitude 10° 17:49:18 10° 128° (SE) 2,259 6.1 -12.5°
Sets 17:51:49 0° 137° (SE) 3,176 6.9 -12.9°
